Location: Baili�vre
(50.0696°N, 4.2409°E)
Time: 09:49:34
(UTC+00:00)

Cosmos 921 Rocket - Pass Details

Date: 08 August 2020
Orbit: 572 x 631 km, 75.8° (Epoch: 20 September)

Event Time Altitude Azimuth Distance (km) Brightness Sun altitude
Rises 21:26:41 0° 336° (NNW) 2,824 8.0 -17.1°
Reaches altitude 10° 21:28:56 10° 334° (NNW) 1,911 6.8 -17.3°
Maximum altitude 21:33:08 64° 253° (WSW) 642 3.1 -17.7°
Enters shadow 21:34:52 33° 183° (S) 981 3.6 -17.9°
